[[{"header":{"parameterUnit":"m.s-1","parameterCategory":1,"la1":30.2991,"la2":30.254,"lo1":-89.0895,"lo2":-89.0444,"dy":0.0017,"dx":0.0017,"nx":28,"ny":28,"refTime":"2025-06-08T09:00:00:Z","depth":0,"parameterNumber":2,"parameterNumberName":"U-component_of_WINDS"},"data":[0,0,0,0,0,0,0,0,0,0,0,0,0,0,0,0,0,0,0,0,0,0,0,0,0,0,0,0,0,0,0,0,0,0,0,0,0,0,0,0,0,0,0,0,0,0,0,0,0,0,0,0,0,0,0,0,0,0,6.4597,6.4598,0,6.4688,6.4689,6.469,6.461,6.4606,6.4603,6.46,6.469,6.4695,6.47,0,0,0,0,0,0,0,0,0,0,0,0,0,6.4352,6.4357,6.4597,6.4598,6.46,6.4687,6.4689,6.469,6.461,6.4606,6.4602,6.4598,6.4688,6.4694,6.4701,0,0,0,0,0,0,0,0,0,0,0,0,0,6.4452,6.4358,6.4597,6.457,6.4569,6.4687,6.4689,6.469,6.4611,6.4606,6.4601,6.4597,6.4686,6.4694,6.4702,6.485,0,0,6.4727,6.473,0,0,0,0,0,0,0,0,6.4446,6.4461,6.4573,6.4572,6.4571,6.4632,6.4635,6.4744,6.4612,6.4595,6.46,6.4594,6.4674,6.4683,6.4711,6.4854,6.4858,6.4727,6.4732,6.4736,6.4738,0,0,0,0,0,0,0,6.4439,6.4456,6.4633,6.4575,6.4574,6.4552,6.4561,6.4655,6.4661,6.4596,6.459,6.4602,6.4673,6.4703,6.4712,6.4859,6.4727,6.4734,6.4739,6.4743,6.5125,6.513,0,0,0,0,0,0,6.4436,6.4451,6.463,6.4636,6.4495,6.4561,6.4571,6.4618,6.466,6.4661,6.4606,6.4598,6.4692,6.4703,6.4715,6.4888,6.4736,6.4743,6.4748,6.512,6.5126,6.5132,0,0,0,0,0,0,6.4431,6.4452,6.4626,6.4542,6.4562,6.457,6.4624,6.4622,6.4652,6.4668,6.4668,6.4637,6.4688,6.4704,6.4816,6.489,6.4747,6.4754,6.5113,6.5121,6.5129,6.5237,0,0,0,0,0,0,6.4424,6.4451,6.4509,6.4544,6.4567,6.4728,6.4628,6.4627,6.4667,6.4657,6.4696,6.4698,6.4686,6.4805,6.4824,6.4899,6.4761,6.5107,6.5117,6.5126,6.5227,6.5248,6.5266,0,0,0,0,0,6.4416,6.4536,6.4512,6.4534,6.464,6.4732,6.4745,6.473,6.4673,6.473,6.4739,6.4696,6.488,6.4817,6.4838,6.4916,6.5102,6.5114,6.5126,6.5218,6.5244,6.5265,0,0,0,0,0,0,6.4509,6.454,6.4514,6.465,6.4689,6.4718,6.479,6.4758,6.4813,6.4801,6.4779,6.4788,6.4907,6.4923,6.4853,6.506,6.4981,6.4998,6.5045,6.5069,6.5088,6.508,6.4768,0,0,0,0,0,6.4545,6.4619,6.4642,6.4759,6.478,6.4782,6.4822,6.4806,6.4846,6.4861,6.4879,6.4918,6.4984,6.5028,6.509,6.523,6.5235,6.5294,6.5314,6.5329,6.5343,6.5415,6.544,6.5171,6.517,6.517,0,0,6.4621,6.4647,6.4695,6.4779,6.4807,6.4882,6.4796,6.488,6.4934,6.4874,6.498,6.4995,6.5037,6.5163,6.522,6.518,6.5419,6.5345,6.5357,6.5362,6.5429,6.5455,6.5478,6.5179,6.5177,6.5176,0,0,6.4796,6.4825,6.4924,6.4954,6.4999,6.4999,6.5023,6.5057,6.5065,6.5172,6.5127,6.5191,6.5306,6.5336,6.5367,6.5553,6.5514,6.5574,6.5673,6.5743,6.5764,6.5783,6.5845,6.5869,6.5588,6.5588,6.5588,0,6.4884,6.4996,6.4979,6.5065,6.5102,6.5051,6.515,6.518,6.5242,6.5268,6.5224,6.5365,6.539,6.552,6.5565,6.5593,6.5617,6.5567,6.5763,6.5782,6.5799,6.5858,6.5882,6.5595,6.5594,6.5593,6.5593,0,6.51,6.5178,6.5253,6.5314,6.536,6.5452,6.5447,6.5495,6.5475,6.5479,6.5587,6.5615,6.568,6.5711,6.5693,6.5838,6.5812,6.5767,6.5686,6.5831,6.5886,6.5909,6.5604,6.5602,6.56,6.5598,0,0,6.5335,6.5385,6.5412,6.5438,6.5483,6.5542,6.5631,6.5695,6.5735,6.578,6.5851,6.5949,6.5906,6.5941,6.5926,6.5988,6.6128,6.5934,6.5934,6.5966,6.6286,6.6317,6.6344,6.6104,6.6109,6.6112,6.6281,0,6.5509,6.5664,6.565,6.5796,6.5866,6.5819,6.5896,6.5931,6.5937,6.5996,6.6003,6.6071,6.6011,6.6031,6.6091,6.6099,6.6192,6.6087,6.6168,6.6171,6.6155,6.6374,6.6408,6.6566,6.6303,6.6307,6.6309,0,6.5732,6.5784,6.5937,6.5969,6.5998,6.6067,6.6123,6.6182,6.6219,6.6219,6.6257,6.6231,6.6318,6.6239,6.6356,6.6285,6.6317,6.6327,6.6332,6.6336,6.6246,6.638,6.6616,6.6638,6.6344,6.6341,6.6338,0,6.5883,6.5992,6.6096,6.6121,6.6161,6.621,6.6229,6.6262,6.6301,6.635,6.6374,6.6433,6.6464,6.6509,6.6498,6.6442,6.6617,6.6538,6.6617,6.6617,6.6653,6.665,6.6894,6.6681,6.668,6.668,6.6679,0,6.6077,6.6171,6.6164,6.6228,6.6332,6.6315,6.6418,6.643,6.646,6.6524,6.6487,6.6548,6.6532,6.6592,6.6584,6.668,6.6696,6.6696,6.6692,6.6697,6.6697,6.6715,6.6703,6.6686,6.6685,6.6684,6.6683,0,6.6262,6.6262,6.6372,6.6401,6.6411,6.6485,6.6509,6.6568,6.6572,6.6653,6.6671,6.6676,6.6743,6.6738,6.6815,6.681,6.6927,6.6913,6.6915,6.691,6.6988,6.6979,6.7249,6.7282,6.7051,6.7053,6.7055,0,6.6383,6.6454,6.6491,6.6532,6.6554,6.662,6.6659,6.6645,6.6687,6.6734,6.6787,6.6851,6.6902,6.7012,6.7021,6.7078,6.7062,6.7153,6.707,6.7072,6.7058,6.7053,6.7058,6.7168,6.7171,6.7173,6.7175,0,6.6598,6.6594,6.6651,6.6709,6.6756,6.6801,6.6842,6.6877,6.6866,6.6915,6.6984,6.7023,6.71,6.7164,6.7218,6.7236,6.7202,6.7201,6.7221,6.7225,6.7222,6.722,6.6954,6.7194,6.7192,6.7191,6.7189,6.7189,6.6752,6.6811,6.6846,6.6911,6.694,6.6978,6.7034,6.7045,6.7102,6.7164,6.7153,6.7229,6.7262,6.7332,6.7355,6.7413,6.738,6.7411,6.7418,6.7425,6.7432,6.7216,6.7424,6.7423,6.7423,6.7422,6.7422,0,6.696,6.698,6.7041,6.7098,6.7148,6.7115,6.7157,6.7201,6.7269,6.7304,6.7354,6.7431,6.7492,6.7506,6.7564,6.7607,6.7593,6.7623,6.7617,6.7621,6.746,6.7435,6.7633,6.7633,6.7633,6.7633,6.7633,6.7633,6.7075,6.7173,6.7173,6.7284,6.7303,6.7378,6.7405,6.7439,6.7466,6.7554,6.7605,6.7614,6.7639,6.7698,6.7751,6.7754,6.7775,6.7809,6.7805,6.7654,6.7633,6.7613,6.7588,6.7815,6.7815,6.796,6.7962,6.7963]},{"header":{"parameterUnit":"m.s-1","parameterCategory":1,"la1":30.2991,"la2":30.254,"lo1":-89.0895,"lo2":-89.0444,"dy":0.0017,"dx":0.0017,"nx":28,"ny":28,"refTime":"2025-06-08T09:00:00:Z","depth":0,"parameterNumber":3,"parameterNumberName":"V-component_of_WINDS"},"data":[0,0,0,0,0,0,0,0,0,0,0,0,0,0,0,0,0,0,0,0,0,0,0,0,0,0,0,0,0,0,0,0,0,0,0,0,0,0,0,0,0,0,0,0,0,0,0,0,0,0,0,0,0,0,0,0,0,0,6.7716,6.7718,0,6.7886,6.7888,6.7889,6.7892,6.789,6.7888,6.7886,6.8053,6.8059,6.8066,0,0,0,0,0,0,0,0,0,0,0,0,0,6.7387,6.7393,6.7716,6.7718,6.772,6.7885,6.7888,6.789,6.7893,6.789,6.7888,6.7885,6.8051,6.8058,6.8066,0,0,0,0,0,0,0,0,0,0,0,0,0,6.754,6.7395,6.7715,6.7742,6.7746,6.7885,6.7888,6.7891,6.7893,6.789,6.7887,6.7884,6.8048,6.8058,6.8067,6.819,0,0,6.8097,6.8101,0,0,0,0,0,0,0,0,6.7532,6.7552,6.7736,6.774,6.7745,6.7865,6.7833,6.7991,6.7894,6.7837,6.7886,6.7882,6.7992,6.8006,6.8045,6.8197,6.8205,6.8097,6.8103,6.8107,6.811,0,0,0,0,0,0,0,6.7521,6.7545,6.7783,6.7738,6.7744,6.7742,6.7761,6.7863,6.793,6.7842,6.7842,6.7863,6.7994,6.8036,6.8049,6.8207,6.8097,6.8106,6.8112,6.8115,6.8467,6.847,0,0,0,0,0,0,6.7506,6.7536,6.7777,6.7788,6.7629,6.7751,6.7771,6.7829,6.7929,6.7941,6.7865,6.7862,6.8021,6.8038,6.8055,6.8204,6.8107,6.8116,6.8122,6.8463,6.8467,6.8471,0,0,0,0,0,0,6.7499,6.7528,6.7771,6.7662,6.7693,6.776,6.7825,6.7834,6.7876,6.7947,6.7958,6.7896,6.8019,6.8041,6.8156,6.8209,6.8121,6.8129,6.8459,6.8464,6.8469,6.8503,0,0,0,0,0,0,6.749,6.7525,6.7574,6.7664,6.7699,6.7871,6.7828,6.784,6.7893,6.7891,6.7979,6.799,6.8018,6.8142,6.8166,6.8221,6.8137,6.8454,6.8461,6.8468,6.8497,6.8509,6.8519,0,0,0,0,0,6.7478,6.7576,6.7577,6.7606,6.7762,6.7875,6.7895,6.7927,6.7898,6.7946,6.7992,6.7987,6.82,6.8154,6.8181,6.824,6.8451,6.8459,6.8467,6.8493,6.8507,6.8518,0,0,0,0,0,0,6.7489,6.7588,6.759,6.772,6.7789,6.7875,6.7937,6.7941,6.8018,6.8012,6.8047,6.8067,6.8181,6.8222,6.8169,6.8362,6.8322,6.8335,6.8332,6.8346,6.8356,6.8343,6.8145,0,0,0,0,0,6.7507,6.7592,6.7673,6.778,6.7815,6.787,6.792,6.794,6.8011,6.804,6.8094,6.8162,6.8244,6.8297,6.8377,6.8503,6.8521,6.8557,6.8568,6.8576,6.8587,6.8655,6.8672,6.8498,6.8498,6.8497,0,0,6.7544,6.7608,6.766,6.7784,6.784,6.7925,6.7895,6.7986,6.8049,6.8053,6.8165,6.8207,6.8285,6.8406,6.8462,6.8444,6.8639,6.8586,6.8593,6.8599,6.8665,6.8682,6.8696,6.8503,6.8502,6.8501,0,0,6.7655,6.7713,6.7808,6.7865,6.795,6.7987,6.8009,6.8095,6.8123,6.8237,6.8241,6.8315,6.8457,6.8512,6.8558,6.8689,6.8687,6.8714,6.8769,6.8835,6.8849,6.8861,6.8906,6.8922,6.8725,6.8725,6.8725,0,6.7689,6.7821,6.7856,6.7948,6.8002,6.8011,6.8106,6.8159,6.8265,6.83,6.8278,6.8455,6.8509,6.8642,6.8674,6.8712,6.8737,6.8704,6.8845,6.8857,6.8869,6.8913,6.893,6.8728,6.8727,6.8727,6.8727,0,6.7858,6.7948,6.8014,6.8119,6.818,6.8273,6.832,6.8377,6.839,6.8428,6.8542,6.8607,6.8699,6.8732,6.8746,6.8867,6.8853,6.8838,6.8797,6.8888,6.8929,6.8946,6.8731,6.873,6.873,6.8729,0,0,6.798,6.8103,6.8127,6.8174,6.8269,6.8338,6.843,6.8523,6.857,6.8642,6.8719,6.8838,6.8825,6.8877,6.8897,6.8955,6.9053,6.8933,6.8935,6.8952,6.9189,6.9199,6.9218,6.9053,6.9056,6.9059,6.9182,0,6.81,6.8268,6.8302,6.8445,6.8528,6.8538,6.8618,6.8684,6.8721,6.8795,6.8835,6.8919,6.8895,6.8927,6.8985,6.9029,6.9101,6.9021,6.9122,6.9126,6.9102,6.924,6.9251,6.9364,6.9198,6.9201,6.9203,0,6.8263,6.8341,6.8494,6.8577,6.8613,6.8685,6.8771,6.8843,6.8916,6.8939,6.8998,6.9011,6.9105,6.9061,6.9189,6.9134,6.9177,6.9205,6.921,6.922,6.9169,6.9252,6.9401,6.9417,6.9229,6.9227,6.9225,0,6.8335,6.8479,6.8588,6.8628,6.8728,6.8778,6.8821,6.8892,6.8945,6.902,6.9054,6.9138,6.9184,6.9248,6.9282,6.9247,6.9407,6.9366,6.9427,6.9426,6.9459,6.9456,6.9616,6.9489,6.9489,6.9489,6.9488,0,6.8465,6.8557,6.8622,6.8689,6.8792,6.8829,6.893,6.8972,6.9035,6.9108,6.9122,6.919,6.9233,6.9306,6.9334,6.9435,6.9455,6.9475,6.9481,6.9473,6.947,6.9501,6.9494,6.9493,6.9492,6.9491,6.9491,0,6.8562,6.861,6.8729,6.8815,6.8838,6.891,6.8982,6.9046,6.9084,6.9177,6.92,6.9259,6.9346,6.9387,6.9495,6.9513,6.9628,6.9629,6.9604,6.9606,6.9663,6.9657,6.9847,6.9873,6.973,6.9732,6.9733,0,6.8641,6.8713,6.8806,6.8858,6.8903,6.8986,6.904,6.9079,6.9135,6.9224,6.9277,6.9365,6.9438,6.9577,6.9627,6.9709,6.9712,6.9773,6.9724,6.9714,6.9711,6.9706,6.9712,6.9781,6.9782,6.9783,6.9784,0,6.8776,6.8796,6.8876,6.8963,6.9029,6.9099,6.9168,6.9208,6.9258,6.9319,6.941,6.9467,6.9578,6.9664,6.975,6.9792,6.9796,6.98,6.9818,6.981,6.9792,6.9801,6.9626,6.9795,6.9794,6.9793,6.9792,6.9792,6.8866,6.893,6.9006,6.9093,6.915,6.9213,6.9278,6.9324,6.9401,6.9496,6.9514,6.961,6.9679,6.9795,6.984,6.9914,6.99,6.9926,6.9933,6.9938,6.9941,6.9781,6.993,6.9929,6.9929,6.9929,6.9929,0,6.9001,6.905,6.9131,6.9227,6.9296,6.9296,6.9372,6.9428,6.9513,6.9579,6.9651,6.9755,6.9839,6.9896,6.9981,7.0029,7.0033,7.005,7.0046,7.0055,6.9949,6.9925,7.0045,7.0045,7.0045,7.0045,7.0045,7.0045,6.9079,6.9186,6.9215,6.9349,6.9398,6.9494,6.9537,6.9595,6.9648,6.9763,6.9834,6.9872,6.9934,7.0023,7.01,7.0114,7.0144,7.0161,7.0175,7.0075,7.0062,7.0051,7.0028,7.0168,7.0168,7.0274,7.0275,7.0275]}]]